CDT,Max TemperatureF,Mean TemperatureF,Min TemperatureF,Max Dew PointF,MeanDew PointF,Min DewpointF,Max Humidity, Mean Humidity, Min Humidity, Max Sea Level PressureIn, Mean Sea Level PressureIn, Min Sea Level PressureIn, Max VisibilityMiles, Mean VisibilityMiles, Min VisibilityMiles, Max Wind SpeedMPH, Mean Wind SpeedMPH, Max Gust SpeedMPH,PrecipitationIn, CloudCover, Events, WindDirDegrees
2014-8-1,91,74,57,61,54,52,82,51,26,30.12,30.09,30.06,10,10,7,17,8,21,0.00,0,,359
2014-8-2,91,73,55,63,54,48,82,52,26,30.20,30.14,30.08,10,10,9,16,4,18,0.00,0,Thunderstorm,114
2014-8-3,93,80,68,61,56,54,68,46,26,30.15,30.10,30.02,10,10,10,20,8,23,0.00,2,,211
2014-8-4,96,81,66,61,57,52,73,47,23,30.11,30.05,29.99,10,10,10,17,9,23,0.00,0,,213
2014-8-5,96,79,62,61,58,55,77,47,27,30.06,30.01,29.95,10,10,9,23,13,30,0.00,0,,194
2014-8-6,91,80,69,66,62,57,78,55,31,30.00,29.92,29.85,10,10,10,18,11,24,0.00,1,,278
2014-8-7,86,75,64,68,65,61,88,70,48,30.03,29.96,29.90,10,9,2,28,9,37,0.00,3,Thunderstorm,44
2014-8-8,87,76,66,66,64,61,88,69,45,30.06,29.99,29.93,10,10,8,20,10,28,0.00,2,Thunderstorm,143
2014-8-9,91,78,64,68,64,57,83,66,43,30.06,29.99,29.91,10,10,9,41,9,51,0.00,2,Thunderstorm,144
2014-8-10,86,74,62,64,62,59,88,68,43,30.16,30.09,30.01,10,10,2,15,8,24,0.00,2,,23
2014-8-11,86,75,64,63,58,52,83,61,33,30.25,30.19,30.15,10,10,10,16,9,21,0.00,0,,14
2014-8-12,84,70,57,57,55,52,82,59,39,30.24,30.18,30.09,10,10,8,10,3,,0.00,1,,134
2014-8-13,89,74,60,63,58,54,77,56,40,30.15,30.10,30.02,10,10,10,21,10,24,0.00,0,,132
2014-8-14,93,80,66,66,62,57,73,55,41,30.06,29.97,29.88,10,10,10,23,13,28,0.00,1,,145
2014-8-15,91,81,71,66,64,63,78,58,38,29.94,29.87,29.82,10,10,6,23,10,22,0.00,3,Thunderstorm,115
2014-8-16,93,80,66,70,64,61,88,62,34,29.97,29.91,29.85,10,9,4,10,5,16,0.00,0,,39
2014-8-17,96,82,69,68,64,54,78,56,36,30.01,29.96,29.86,10,10,10,29,8,38,0.00,1,,138
2014-8-18,96,79,62,68,60,48,78,55,25,30.05,29.89,29.79,10,10,9,30,8,41,0.00,0,,128
2014-8-19,98,80,62,63,58,50,77,47,27,29.95,29.84,29.76,10,10,10,24,11,31,0.00,0,,178
2014-8-20,98,84,69,66,63,61,73,50,32,29.82,29.79,29.73,10,10,9,28,16,38,0.00,0,,184
2014-8-21,100,89,78,68,63,59,61,45,31,29.90,29.83,29.80,10,10,10,23,16,28,0.00,1,Thunderstorm,190
2014-8-22,98,86,73,70,66,63,78,59,32,29.95,29.90,29.83,10,10,7,28,9,39,0.00,1,Thunderstorm,114
2014-8-23,98,83,68,64,61,52,83,52,25,29.90,29.83,29.75,10,10,10,28,12,39,0.00,0,,172
2014-8-24,91,78,66,63,57,48,69,46,30,29.94,29.86,29.79,10,10,10,23,13,30,0.00,0,,3
2014-8-25,96,81,66,66,61,57,78,59,32,30.09,29.98,29.92,10,10,5,21,10,28,0.00,2,Thunderstorm,72
2014-8-26,89,76,62,66,61,54,83,64,40,30.18,30.10,30.04,10,10,10,15,9,22,0.00,0,,104
2014-8-27,82,76,69,68,65,63,83,71,54,30.13,30.07,29.98,10,10,4,21,7,29,0.00,4,Thunderstorm,152
2014-8-28,84,76,68,66,64,59,83,68,48,29.99,29.91,29.85,10,10,9,18,8,24,0.00,3,,179
2014-8-29,86,74,62,63,57,54,83,61,35,29.96,29.89,29.85,10,10,10,22,10,29,0.00,1,Thunderstorm,296
2014-8-30,93,76,60,59,55,52,77,52,26,30.01,29.94,29.85,10,10,8,20,8,24,0.00,0,,177
2014-8-31,98,82,66,64,60,54,83,56,29,29.87,29.77,29.61,10,10,7,33,15,44,0.00,2,Thunderstorm,167